Time,TemperatureF,DewpointF,PressureIn,WindDirection,WindDirectionDegrees,WindSpeedMPH,WindSpeedGustMPH,Humidity,HourlyPrecipIn,Conditions,Clouds,dailyrainin,SoftwareType,DateUTC
2013-02-24 00:00:00,31.9,25.5,29.87,NNW,338,4.3,5.4,77,0.00,,,7.32,WUHU216HW,2013-02-24 05:00:00,
2013-02-24 00:05:00,31.9,25.5,29.87,WNW,293,2.7,4.3,77,2.59,,,0.30,WUHU216HW,2013-02-24 05:05:00,
2013-02-24 00:10:00,31.9,25.5,29.87,WNW,293,3.8,4.0,77,2.59,,,0.30,WUHU216HW,2013-02-24 05:10:00,
2013-02-24 00:15:00,31.9,25.5,29.87,WNW,293,3.6,4.0,77,2.59,,,0.30,WUHU216HW,2013-02-24 05:15:00,
2013-02-24 00:20:00,31.9,25.5,29.87,WNW,293,2.0,4.3,77,2.59,,,0.30,WUHU216HW,2013-02-24 05:20:00,
2013-02-24 00:25:00,31.9,25.5,29.87,WNW,293,3.4,4.7,77,2.59,,,0.30,WUHU216HW,2013-02-24 05:25:00,
2013-02-24 00:30:00,31.7,25.3,29.87,NW,315,3.4,4.7,77,2.59,,,0.30,WUHU216HW,2013-02-24 05:30:00,
2013-02-24 00:35:00,31.7,25.3,29.87,WNW,293,2.5,4.0,77,2.59,,,0.30,WUHU216HW,2013-02-24 05:35:00,
2013-02-24 00:40:00,31.7,25.7,29.87,West,270,3.8,5.4,78,2.59,,,0.30,WUHU216HW,2013-02-24 05:40:00,
2013-02-24 00:45:00,31.7,25.7,29.87,NW,315,2.5,5.4,78,2.59,,,0.30,WUHU216HW,2013-02-24 05:45:00,
2013-02-24 00:50:00,31.7,25.7,29.87,WNW,293,5.4,5.4,78,2.59,,,0.30,WUHU216HW,2013-02-24 05:50:00,
2013-02-24 00:55:00,31.7,25.7,29.86,NW,315,4.0,5.4,78,2.59,,,0.30,WUHU216HW,2013-02-24 05:55:00,
2013-02-24 01:00:00,31.7,25.7,29.86,WNW,293,4.5,5.4,78,0.00,,,0.30,WUHU216HW,2013-02-24 06:00:00,
2013-02-24 01:05:00,31.7,25.7,29.86,WNW,293,1.6,5.4,78,0.00,,,0.61,WUHU216HW,2013-02-24 06:05:00,
2013-02-24 01:10:00,31.7,25.7,29.86,SW,225,2.0,5.4,78,0.00,,,0.61,WUHU216HW,2013-02-24 06:10:00,
2013-02-24 01:15:00,31.7,25.7,29.85,West,270,4.0,5.1,78,0.00,,,0.61,WUHU216HW,2013-02-24 06:15:00,
2013-02-24 01:20:00,31.7,25.7,29.85,WNW,293,2.2,5.1,78,0.00,,,0.61,WUHU216HW,2013-02-24 06:20:00,
2013-02-24 01:25:00,31.5,25.5,29.85,WNW,293,1.8,5.1,78,0.00,,,0.61,WUHU216HW,2013-02-24 06:25:00,
2013-02-24 01:30:00,31.5,25.5,29.85,NW,315,3.6,4.7,78,0.00,,,0.61,WUHU216HW,2013-02-24 06:30:00,
2013-02-24 01:35:00,31.5,25.5,29.85,WNW,293,4.0,4.3,78,0.00,,,0.61,WUHU216HW,2013-02-24 06:35:00,
2013-02-24 01:40:00,31.5,25.5,29.85,WNW,293,3.8,4.9,78,0.00,,,0.61,WUHU216HW,2013-02-24 06:40:00,
2013-02-24 01:45:00,31.5,25.5,29.85,NW,315,3.8,4.9,78,0.00,,,0.61,WUHU216HW,2013-02-24 06:45:00,
2013-02-24 01:50:00,31.5,25.5,29.85,WNW,293,3.4,4.5,78,0.00,,,0.61,WUHU216HW,2013-02-24 06:50:00,
2013-02-24 01:55:00,31.5,25.5,29.85,SE,135,1.1,4.7,78,0.00,,,0.61,WUHU216HW,2013-02-24 06:55:00,
2013-02-24 02:00:00,31.5,25.1,29.86,WNW,293,3.4,6.7,77,0.00,,,0.61,WUHU216HW,2013-02-24 07:00:00,
2013-02-24 02:05:00,31.3,24.9,29.85,West,270,4.7,8.1,77,0.00,,,0.91,WUHU216HW,2013-02-24 07:05:00,
2013-02-24 02:10:00,31.3,24.9,29.85,WNW,293,2.5,8.1,77,0.00,,,0.91,WUHU216HW,2013-02-24 07:10:00,
2013-02-24 02:15:00,31.5,25.5,29.85,WNW,293,3.1,5.8,78,0.00,,,0.91,WUHU216HW,2013-02-24 07:15:00,
2013-02-24 02:20:00,31.5,25.5,29.85,West,270,2.5,7.2,78,0.00,,,0.91,WUHU216HW,2013-02-24 07:20:00,
2013-02-24 02:25:00,31.3,24.9,29.85,NW,315,3.4,7.2,77,0.00,,,0.91,WUHU216HW,2013-02-24 07:25:00,
2013-02-24 02:30:00,31.3,24.9,29.85,WNW,293,6.9,8.3,77,0.00,,,0.91,WUHU216HW,2013-02-24 07:30:00,
2013-02-24 02:35:00,31.3,24.9,29.85,West,270,4.0,8.3,77,0.00,,,0.91,WUHU216HW,2013-02-24 07:35:00,
2013-02-24 02:40:00,31.3,24.9,29.85,NW,315,7.2,7.2,77,0.00,,,0.91,WUHU216HW,2013-02-24 07:40:00,
2013-02-24 02:45:00,31.3,24.9,29.85,NW,315,4.0,7.2,77,0.00,,,0.91,WUHU216HW,2013-02-24 07:45:00,
2013-02-24 02:50:00,31.3,24.9,29.85,WNW,293,4.5,6.5,77,0.00,,,0.91,WUHU216HW,2013-02-24 07:50:00,
2013-02-24 02:55:00,31.3,24.9,29.85,WNW,293,3.4,6.5,77,0.00,,,0.91,WUHU216HW,2013-02-24 07:55:00,
2013-02-24 03:00:00,31.3,24.9,29.85,West,270,2.9,5.4,77,0.00,,,0.91,WUHU216HW,2013-02-24 08:00:00,
2013-02-24 03:05:00,31.3,24.9,29.85,West,270,4.3,5.4,77,0.00,,,1.22,WUHU216HW,2013-02-24 08:05:00,
2013-02-24 03:10:00,31.3,24.9,29.85,WNW,293,3.6,5.6,77,0.00,,,1.22,WUHU216HW,2013-02-24 08:10:00,
2013-02-24 03:15:00,31.3,24.9,29.85,WSW,248,4.7,5.6,77,0.00,,,1.22,WUHU216HW,2013-02-24 08:15:00,
2013-02-24 03:20:00,31.3,24.9,29.85,West,270,5.4,7.4,77,0.00,,,1.22,WUHU216HW,2013-02-24 08:20:00,
2013-02-24 03:25:00,31.3,24.9,29.85,WSW,248,2.9,7.4,77,0.00,,,1.22,WUHU216HW,2013-02-24 08:25:00,
2013-02-24 03:30:00,31.3,24.9,29.85,West,270,8.5,9.2,77,0.00,,,1.22,WUHU216HW,2013-02-24 08:30:00,
2013-02-24 03:35:00,31.3,24.9,29.85,West,270,6.3,9.2,77,0.00,,,1.22,WUHU216HW,2013-02-24 08:35:00,
2013-02-24 03:40:00,31.3,24.9,29.85,West,270,12.8,12.8,77,0.00,,,1.22,WUHU216HW,2013-02-24 08:40:00,
2013-02-24 03:45:00,31.3,24.9,29.85,NW,315,6.0,12.8,77,0.00,,,1.22,WUHU216HW,2013-02-24 08:45:00,
2013-02-24 03:50:00,31.3,24.9,29.85,NW,315,6.5,11.4,77,0.00,,,1.22,WUHU216HW,2013-02-24 08:50:00,
2013-02-24 03:55:00,31.3,24.9,29.85,NW,315,7.6,8.7,77,0.00,,,1.22,WUHU216HW,2013-02-24 08:55:00,
2013-02-24 04:00:00,31.3,24.7,29.85,WNW,293,4.3,8.7,76,0.00,,,1.22,WUHU216HW,2013-02-24 09:00:00,
2013-02-24 04:05:00,31.3,24.9,29.85,NW,315,5.1,8.7,77,0.00,,,1.52,WUHU216HW,2013-02-24 09:05:00,
2013-02-24 04:10:00,31.3,24.9,29.85,NW,315,4.7,7.8,77,0.00,,,1.52,WUHU216HW,2013-02-24 09:10:00,
2013-02-24 04:15:00,31.3,24.7,29.85,NW,315,3.8,9.6,76,0.00,,,1.52,WUHU216HW,2013-02-24 09:15:00,
2013-02-24 04:20:00,31.1,24.5,29.85,WNW,293,4.7,9.6,76,0.00,,,1.52,WUHU216HW,2013-02-24 09:20:00,
2013-02-24 04:25:00,31.1,24.5,29.85,WNW,293,4.3,8.3,76,0.00,,,1.52,WUHU216HW,2013-02-24 09:25:00,
2013-02-24 04:30:00,31.1,24.5,29.85,NNW,338,5.8,7.8,76,0.00,,,1.52,WUHU216HW,2013-02-24 09:30:00,
2013-02-24 04:35:00,31.1,24.5,29.85,NNW,338,4.7,8.5,76,0.00,,,1.52,WUHU216HW,2013-02-24 09:35:00,
2013-02-24 04:40:00,31.1,24.5,29.85,West,270,9.2,9.6,76,0.00,,,1.52,WUHU216HW,2013-02-24 09:40:00,
2013-02-24 04:45:00,31.0,24.6,29.85,WNW,293,8.1,9.6,77,0.00,,,1.52,WUHU216HW,2013-02-24 09:45:00,
2013-02-24 04:50:00,31.0,24.6,29.85,WNW,293,8.5,11.4,77,0.00,,,1.52,WUHU216HW,2013-02-24 09:50:00,
2013-02-24 04:55:00,31.0,24.6,29.85,West,270,5.4,11.4,77,0.00,,,1.52,WUHU216HW,2013-02-24 09:55:00,
2013-02-24 05:00:00,31.0,24.6,29.86,West,270,5.6,11.4,77,0.00,,,1.52,WUHU216HW,2013-02-24 10:00:00,
2013-02-24 05:05:00,31.0,24.6,29.86,NW,315,5.4,11.4,77,0.00,,,1.83,WUHU216HW,2013-02-24 10:05:00,
2013-02-24 05:10:00,31.0,24.6,29.86,West,270,4.0,7.2,77,0.00,,,1.83,WUHU216HW,2013-02-24 10:10:00,
2013-02-24 05:15:00,31.0,24.6,29.86,NW,315,7.6,8.1,77,0.00,,,1.83,WUHU216HW,2013-02-24 10:15:00,
2013-02-24 05:20:00,31.0,24.6,29.86,West,270,6.5,8.1,77,0.00,,,1.83,WUHU216HW,2013-02-24 10:20:00,
2013-02-24 05:25:00,31.0,24.6,29.86,NW,315,2.7,7.6,77,0.00,,,1.83,WUHU216HW,2013-02-24 10:25:00,
2013-02-24 05:30:00,31.0,24.6,29.86,WSW,248,3.6,6.5,77,0.00,,,1.83,WUHU216HW,2013-02-24 10:30:00,
2013-02-24 05:35:00,31.0,24.6,29.87,NW,315,7.2,7.2,77,0.00,,,1.83,WUHU216HW,2013-02-24 10:35:00,
2013-02-24 05:40:00,31.0,24.6,29.87,NNW,338,6.9,8.1,77,0.00,,,1.83,WUHU216HW,2013-02-24 10:40:00,
2013-02-24 05:45:00,30.8,24.4,29.87,NNW,338,6.9,11.6,77,0.00,,,1.83,WUHU216HW,2013-02-24 10:45:00,
2013-02-24 05:50:00,30.8,24.4,29.87,WNW,293,5.4,11.6,77,0.00,,,1.83,WUHU216HW,2013-02-24 10:50:00,
2013-02-24 05:55:00,30.8,24.4,29.87,WNW,293,6.5,8.5,77,0.00,,,1.83,WUHU216HW,2013-02-24 10:55:00,
2013-02-24 06:00:00,30.6,24.6,29.87,WNW,293,6.9,10.3,78,0.00,,,1.83,WUHU216HW,2013-02-24 11:00:00,
2013-02-24 06:05:00,30.6,24.6,29.87,WSW,248,6.0,10.3,78,0.00,,,2.13,WUHU216HW,2013-02-24 11:05:00,
2013-02-24 06:10:00,30.6,24.6,29.87,WNW,293,4.0,8.5,78,0.00,,,2.13,WUHU216HW,2013-02-24 11:10:00,
2013-02-24 06:15:00,30.6,24.6,29.87,NW,315,4.0,9.6,78,0.00,,,2.13,WUHU216HW,2013-02-24 11:15:00,
2013-02-24 06:20:00,30.6,24.6,29.87,NW,315,6.3,9.6,78,0.00,,,2.13,WUHU216HW,2013-02-24 11:20:00,
2013-02-24 06:25:00,30.6,24.6,29.87,NW,315,4.9,8.9,78,0.00,,,2.13,WUHU216HW,2013-02-24 11:25:00,
2013-02-24 06:30:00,30.6,24.6,29.87,WNW,293,6.5,8.5,78,0.00,,,2.13,WUHU216HW,2013-02-24 11:30:00,
2013-02-24 06:35:00,30.6,24.6,29.87,WNW,293,3.8,8.7,78,0.00,,,2.13,WUHU216HW,2013-02-24 11:35:00,
2013-02-24 06:40:00,30.6,24.6,29.87,West,270,3.4,8.7,78,0.00,,,2.13,WUHU216HW,2013-02-24 11:40:00,
2013-02-24 06:45:00,30.6,24.6,29.87,West,270,3.4,7.2,78,0.00,,,2.13,WUHU216HW,2013-02-24 11:45:00,
2013-02-24 06:50:00,30.6,24.6,29.87,WNW,293,4.7,7.2,78,0.00,,,2.13,WUHU216HW,2013-02-24 11:50:00,
2013-02-24 06:55:00,30.6,24.6,29.87,West,270,4.3,7.6,78,0.00,,,2.13,WUHU216HW,2013-02-24 11:55:00,
2013-02-24 07:00:00,30.6,24.6,29.87,NW,315,6.3,9.2,78,0.00,,,2.13,WUHU216HW,2013-02-24 12:00:00,
2013-02-24 07:05:00,30.6,24.6,29.87,WNW,293,3.4,10.3,78,0.00,,,2.44,WUHU216HW,2013-02-24 12:05:00,
2013-02-24 07:10:00,30.6,24.6,29.87,NW,315,6.9,10.3,78,0.00,,,2.44,WUHU216HW,2013-02-24 12:10:00,
2013-02-24 07:15:00,30.6,24.8,29.87,WNW,293,4.3,8.5,79,0.00,,,2.44,WUHU216HW,2013-02-24 12:15:00,
2013-02-24 07:20:00,30.6,24.8,29.87,WNW,293,7.6,9.2,79,0.00,,,2.44,WUHU216HW,2013-02-24 12:20:00,
2013-02-24 07:25:00,30.6,24.8,29.87,NNW,338,6.9,9.2,79,0.00,,,2.44,WUHU216HW,2013-02-24 12:25:00,
2013-02-24 07:30:00,30.6,24.8,29.87,WNW,293,6.5,10.1,79,0.00,,,2.44,WUHU216HW,2013-02-24 12:30:00,
2013-02-24 07:35:00,30.6,24.8,29.87,WNW,293,9.8,10.1,79,0.00,,,2.44,WUHU216HW,2013-02-24 12:35:00,
2013-02-24 07:40:00,30.6,24.8,29.87,NW,315,6.9,9.8,79,0.00,,,2.44,WUHU216HW,2013-02-24 12:40:00,
2013-02-24 07:45:00,30.6,24.8,29.87,NW,315,5.1,9.6,79,0.00,,,2.44,WUHU216HW,2013-02-24 12:45:00,
2013-02-24 07:50:00,30.6,24.8,29.87,NW,315,5.4,8.9,79,0.00,,,2.44,WUHU216HW,2013-02-24 12:50:00,
2013-02-24 07:55:00,30.6,24.8,29.87,NW,315,6.7,12.1,79,0.00,,,2.44,WUHU216HW,2013-02-24 12:55:00,
2013-02-24 08:00:00,30.4,24.7,29.87,WNW,293,4.7,12.1,79,0.00,,,2.44,WUHU216HW,2013-02-24 13:00:00,
2013-02-24 08:05:00,30.6,25.2,29.87,NW,315,6.0,11.4,80,0.00,,,2.74,WUHU216HW,2013-02-24 13:05:00,
2013-02-24 08:10:00,30.6,25.2,29.87,NNW,338,4.7,11.2,80,0.00,,,2.74,WUHU216HW,2013-02-24 13:10:00,
2013-02-24 08:15:00,30.6,25.2,29.88,NNW,338,8.3,11.2,80,0.00,,,2.74,WUHU216HW,2013-02-24 13:15:00,
2013-02-24 08:20:00,30.6,25.2,29.88,NNW,338,6.0,10.7,80,0.00,,,2.74,WUHU216HW,2013-02-24 13:20:00,
2013-02-24 08:25:00,30.4,25.0,29.88,West,270,4.7,10.7,80,0.00,,,2.74,WUHU216HW,2013-02-24 13:25:00,
2013-02-24 08:30:00,30.2,24.8,29.88,NW,315,5.1,10.7,80,0.00,,,2.74,WUHU216HW,2013-02-24 13:30:00,
2013-02-24 08:35:00,30.4,25.3,29.88,NW,315,4.7,8.1,81,0.00,,,2.74,WUHU216HW,2013-02-24 13:35:00,
2013-02-24 08:40:00,30.6,25.5,29.88,NW,315,6.0,8.1,81,0.00,,,2.74,WUHU216HW,2013-02-24 13:40:00,
2013-02-24 08:45:00,30.6,25.5,29.88,NW,315,6.0,12.1,81,0.00,,,2.74,WUHU216HW,2013-02-24 13:45:00,
2013-02-24 08:50:00,30.6,25.5,29.89,WNW,293,7.4,12.1,81,0.00,,,2.74,WUHU216HW,2013-02-24 13:50:00,
2013-02-24 08:55:00,30.8,25.7,29.89,NW,315,5.4,8.5,81,0.00,,,2.74,WUHU216HW,2013-02-24 13:55:00,
2013-02-24 09:00:00,31.0,25.8,29.89,NW,315,5.4,10.5,81,0.00,,,2.74,WUHU216HW,2013-02-24 14:00:00,
2013-02-24 09:05:00,31.0,25.8,29.89,NNW,338,6.7,12.1,81,0.00,,,3.05,WUHU216HW,2013-02-24 14:05:00,
2013-02-24 09:10:00,31.1,26.0,29.89,NW,315,7.2,12.1,81,0.00,,,3.05,WUHU216HW,2013-02-24 14:10:00,
2013-02-24 09:15:00,31.1,26.0,29.89,NNW,338,6.9,10.5,81,0.00,,,3.05,WUHU216HW,2013-02-24 14:15:00,
2013-02-24 09:20:00,31.3,25.9,29.89,NW,315,9.4,10.5,80,0.00,,,3.05,WUHU216HW,2013-02-24 14:20:00,
2013-02-24 09:25:00,31.3,25.9,29.89,West,270,13.2,13.2,80,0.00,,,3.05,WUHU216HW,2013-02-24 14:25:00,
2013-02-24 09:30:00,31.1,25.7,29.89,West,270,5.6,13.2,80,0.00,,,3.05,WUHU216HW,2013-02-24 14:30:00,
2013-02-24 09:35:00,31.3,25.9,29.90,West,270,5.8,13.2,80,0.00,,,3.05,WUHU216HW,2013-02-24 14:35:00,
2013-02-24 09:40:00,31.5,25.7,29.89,NW,315,10.7,15.0,79,0.00,,,3.05,WUHU216HW,2013-02-24 14:40:00,
2013-02-24 09:45:00,31.5,25.7,29.90,NNW,338,4.3,15.0,79,0.00,,,3.05,WUHU216HW,2013-02-24 14:45:00,
2013-02-24 09:50:00,31.9,26.1,29.89,NNW,338,10.5,13.6,79,0.00,,,3.05,WUHU216HW,2013-02-24 14:50:00,
2013-02-24 09:55:00,32.2,26.8,29.90,WNW,293,8.7,13.4,80,0.00,,,3.05,WUHU216HW,2013-02-24 14:55:00,
2013-02-24 10:00:00,32.2,26.5,29.90,NW,315,8.3,15.0,79,0.00,,,3.05,WUHU216HW,2013-02-24 15:00:00,
2013-02-24 10:05:00,32.2,26.5,29.90,NW,315,9.8,15.0,79,0.00,,,3.35,WUHU216HW,2013-02-24 15:05:00,
2013-02-24 10:10:00,32.0,26.3,29.90,West,270,9.2,13.4,79,0.00,,,3.35,WUHU216HW,2013-02-24 15:10:00,
2013-02-24 10:15:00,32.0,26.0,29.90,NW,315,7.6,13.4,78,0.00,,,3.35,WUHU216HW,2013-02-24 15:15:00,
2013-02-24 10:20:00,31.9,25.8,29.90,NW,315,12.1,15.4,78,0.00,,,3.35,WUHU216HW,2013-02-24 15:20:00,
2013-02-24 10:25:00,32.2,26.5,29.90,NW,315,8.7,15.4,79,0.00,,,3.35,WUHU216HW,2013-02-24 15:25:00,
2013-02-24 10:30:00,32.2,26.5,29.90,WNW,293,13.0,15.0,79,0.00,,,3.35,WUHU216HW,2013-02-24 15:30:00,
2013-02-24 10:35:00,32.4,26.6,29.90,North,0,13.0,15.0,79,0.00,,,3.35,WUHU216HW,2013-02-24 15:35:00,
2013-02-24 10:40:00,32.2,26.2,29.90,NNW,338,4.9,14.1,78,0.00,,,3.35,WUHU216HW,2013-02-24 15:40:00,
2013-02-24 10:45:00,32.0,26.0,29.90,WNW,293,7.6,14.1,78,0.00,,,3.35,WUHU216HW,2013-02-24 15:45:00,
2013-02-24 10:50:00,32.0,26.0,29.90,West,270,7.4,14.3,78,0.00,,,3.35,WUHU216HW,2013-02-24 15:50:00,
2013-02-24 10:55:00,32.2,26.2,29.90,NW,315,10.3,17.0,78,0.00,,,3.35,WUHU216HW,2013-02-24 15:55:00,
2013-02-24 11:00:00,32.4,26.0,29.90,WNW,293,13.4,17.0,77,0.00,,,3.35,WUHU216HW,2013-02-24 16:00:00,
2013-02-24 11:05:00,32.8,26.3,29.90,NW,315,6.3,17.0,77,0.00,,,3.66,WUHU216HW,2013-02-24 16:05:00,
2013-02-24 11:10:00,32.8,26.0,29.91,WNW,293,16.3,16.6,76,0.00,,,3.66,WUHU216HW,2013-02-24 16:10:00,
2013-02-24 11:15:00,32.6,25.8,29.90,NW,315,9.8,18.1,76,0.00,,,3.66,WUHU216HW,2013-02-24 16:15:00,
2013-02-24 11:20:00,32.8,26.0,29.91,West,270,13.0,18.1,76,0.00,,,3.66,WUHU216HW,2013-02-24 16:20:00,
2013-02-24 11:25:00,33.1,26.3,29.91,NW,315,11.9,16.3,76,0.00,,,3.66,WUHU216HW,2013-02-24 16:25:00,
2013-02-24 11:30:00,33.5,26.6,29.91,NW,315,9.4,16.3,76,0.00,,,3.66,WUHU216HW,2013-02-24 16:30:00,
2013-02-24 11:35:00,33.7,26.5,29.91,NNW,338,7.8,15.7,75,0.00,,,3.66,WUHU216HW,2013-02-24 16:35:00,
2013-02-24 11:40:00,33.7,26.2,29.91,NNW,338,10.1,15.0,74,0.00,,,3.66,WUHU216HW,2013-02-24 16:40:00,
2013-02-24 11:45:00,33.1,25.7,29.91,NW,315,5.6,15.0,74,0.00,,,3.66,WUHU216HW,2013-02-24 16:45:00,
2013-02-24 11:50:00,32.9,25.5,29.91,NW,315,14.3,14.3,74,0.00,,,3.66,WUHU216HW,2013-02-24 16:50:00,
2013-02-24 11:55:00,32.6,25.2,29.91,NW,315,9.8,16.3,74,0.00,,,3.66,WUHU216HW,2013-02-24 16:55:00,
2013-02-24 12:00:00,32.6,25.6,29.91,WNW,293,6.3,16.3,75,0.00,,,3.66,WUHU216HW,2013-02-24 17:00:00,
2013-02-24 12:05:00,32.4,25.4,29.91,NNW,338,10.1,15.7,75,2.59,,,3.96,WUHU216HW,2013-02-24 17:05:00,
2013-02-24 12:10:00,32.6,25.5,29.91,WNW,293,16.1,16.1,75,2.59,,,3.96,WUHU216HW,2013-02-24 17:10:00,
2013-02-24 12:15:00,32.6,25.8,29.91,NNW,338,7.6,16.1,76,2.59,,,3.96,WUHU216HW,2013-02-24 17:15:00,
2013-02-24 12:20:00,32.9,26.2,29.92,West,270,8.5,16.1,76,2.59,,,3.96,WUHU216HW,2013-02-24 17:20:00,
2013-02-24 12:25:00,33.3,26.5,29.92,NW,315,6.3,15.0,76,2.59,,,3.96,WUHU216HW,2013-02-24 17:25:00,
2013-02-24 12:30:00,33.1,26.3,29.92,WNW,293,13.2,14.3,76,2.59,,,3.96,WUHU216HW,2013-02-24 17:30:00,
2013-02-24 12:35:00,32.9,26.2,29.92,West,270,9.2,15.0,76,2.59,,,3.96,WUHU216HW,2013-02-24 17:35:00,
2013-02-24 12:40:00,32.8,26.0,29.92,WNW,293,6.9,15.0,76,2.59,,,3.96,WUHU216HW,2013-02-24 17:40:00,
2013-02-24 12:45:00,32.8,26.0,29.92,WSW,248,12.8,15.9,76,2.59,,,3.96,WUHU216HW,2013-02-24 17:45:00,
2013-02-24 12:50:00,32.8,26.0,29.92,WNW,293,8.3,16.1,76,2.59,,,3.96,WUHU216HW,2013-02-24 17:50:00,
2013-02-24 12:55:00,33.1,26.3,29.92,NW,315,11.6,16.1,76,2.59,,,3.96,WUHU216HW,2013-02-24 17:55:00,
2013-02-24 13:00:00,33.1,26.3,29.92,NNW,338,9.2,14.8,76,0.00,,,4.27,WUHU216HW,2013-02-24 18:00:00,
2013-02-24 13:05:00,32.8,26.0,29.92,WNW,293,15.4,17.9,76,0.00,,,4.27,WUHU216HW,2013-02-24 18:05:00,
2013-02-24 13:10:00,32.6,25.8,29.92,WNW,293,7.8,17.9,76,0.00,,,4.27,WUHU216HW,2013-02-24 18:10:00,
2013-02-24 13:15:00,32.0,25.7,29.92,NW,315,5.4,16.8,77,0.00,,,4.27,WUHU216HW,2013-02-24 18:15:00,
2013-02-24 13:20:00,32.0,25.7,29.92,NW,315,11.0,14.8,77,0.00,,,4.27,WUHU216HW,2013-02-24 18:20:00,
2013-02-24 13:25:00,31.9,25.8,29.92,West,270,6.5,15.0,78,0.00,,,4.27,WUHU216HW,2013-02-24 18:25:00,
2013-02-24 13:30:00,31.9,25.8,29.92,NW,315,6.9,15.0,78,0.00,,,4.27,WUHU216HW,2013-02-24 18:30:00,
2013-02-24 13:35:00,31.9,25.8,29.92,NW,315,9.6,14.1,78,0.00,,,4.27,WUHU216HW,2013-02-24 18:35:00,
2013-02-24 13:40:00,31.9,25.8,29.92,NW,315,9.2,14.8,78,0.00,,,4.27,WUHU216HW,2013-02-24 18:40:00,
2013-02-24 13:45:00,32.0,26.0,29.92,NNW,338,6.9,14.8,78,0.00,,,4.27,WUHU216HW,2013-02-24 18:45:00,
2013-02-24 13:50:00,32.4,26.3,29.92,NW,315,10.1,14.5,78,0.00,,,4.27,WUHU216HW,2013-02-24 18:50:00,
2013-02-24 13:55:00,32.4,26.3,29.92,WNW,293,7.2,14.3,78,0.00,,,4.27,WUHU216HW,2013-02-24 18:55:00,
2013-02-24 14:00:00,32.4,26.3,29.92,North,0,9.8,16.3,78,0.00,,,4.57,WUHU216HW,2013-02-24 19:00:00,
2013-02-24 14:05:00,32.4,26.3,29.92,West,270,10.5,16.3,78,0.00,,,4.57,WUHU216HW,2013-02-24 19:05:00,
2013-02-24 14:10:00,32.4,26.0,29.92,WSW,248,9.8,19.5,77,0.00,,,4.57,WUHU216HW,2013-02-24 19:10:00,
2013-02-24 14:15:00,32.6,26.2,29.92,WNW,293,9.4,19.5,77,0.00,,,4.57,WUHU216HW,2013-02-24 19:15:00,
2013-02-24 14:20:00,32.6,26.2,29.92,NW,315,7.8,17.4,77,0.00,,,4.57,WUHU216HW,2013-02-24 19:20:00,
2013-02-24 14:25:00,32.8,26.3,29.92,West,270,14.3,14.3,77,0.00,,,4.57,WUHU216HW,2013-02-24 19:25:00,
2013-02-24 14:30:00,33.1,26.3,29.92,NNW,338,9.2,14.3,76,0.00,,,4.57,WUHU216HW,2013-02-24 19:30:00,
2013-02-24 14:35:00,33.1,26.3,29.93,NW,315,7.6,13.6,76,0.00,,,4.57,WUHU216HW,2013-02-24 19:35:00,
2013-02-24 14:40:00,33.1,26.3,29.93,NW,315,10.3,13.4,76,0.00,,,4.57,WUHU216HW,2013-02-24 19:40:00,
2013-02-24 14:45:00,32.8,25.7,29.93,NNW,338,6.7,14.5,75,0.00,,,4.57,WUHU216HW,2013-02-24 19:45:00,
2013-02-24 14:50:00,32.6,25.5,29.93,NW,315,11.2,17.0,75,0.00,,,4.57,WUHU216HW,2013-02-24 19:50:00,
2013-02-24 14:55:00,32.4,25.4,29.94,NNW,338,15.7,17.0,75,0.00,,,4.57,WUHU216HW,2013-02-24 19:55:00,
2013-02-24 15:00:00,32.4,25.4,29.94,WNW,293,9.6,16.6,75,0.00,,,4.87,WUHU216HW,2013-02-24 20:00:00,
2013-02-24 15:05:00,32.2,25.2,29.94,West,270,13.0,16.6,75,0.00,,,4.87,WUHU216HW,2013-02-24 20:05:00,
2013-02-24 15:10:00,32.0,25.4,29.94,NW,315,16.3,16.3,76,0.00,,,4.87,WUHU216HW,2013-02-24 20:10:00,
2013-02-24 15:15:00,32.2,25.5,29.94,WNW,293,8.9,16.3,76,0.00,,,4.87,WUHU216HW,2013-02-24 20:15:00,
2013-02-24 15:20:00,32.0,25.4,29.95,WSW,248,3.4,17.7,76,0.00,,,4.87,WUHU216HW,2013-02-24 20:20:00,
2013-02-24 15:25:00,32.2,25.2,29.95,WNW,293,13.2,17.7,75,0.00,,,4.87,WUHU216HW,2013-02-24 20:25:00,
2013-02-24 15:30:00,32.4,25.7,29.95,WNW,293,9.4,17.2,76,0.00,,,4.87,WUHU216HW,2013-02-24 20:30:00,
2013-02-24 15:35:00,32.4,25.4,29.95,West,270,8.1,17.7,75,0.00,,,4.87,WUHU216HW,2013-02-24 20:35:00,
2013-02-24 15:40:00,32.4,25.4,29.95,WNW,293,5.4,17.7,75,0.00,,,4.87,WUHU216HW,2013-02-24 20:40:00,
2013-02-24 15:45:00,32.2,25.2,29.95,NW,315,11.9,17.9,75,0.00,,,4.87,WUHU216HW,2013-02-24 20:45:00,
2013-02-24 15:50:00,32.2,25.2,29.96,WNW,293,7.4,17.9,75,0.00,,,4.87,WUHU216HW,2013-02-24 20:50:00,
2013-02-24 15:55:00,32.4,25.4,29.96,NW,315,6.5,15.9,75,0.00,,,4.87,WUHU216HW,2013-02-24 20:55:00,
2013-02-24 16:00:00,32.4,25.4,29.96,WNW,293,15.0,15.4,75,0.00,,,5.18,WUHU216HW,2013-02-24 21:00:00,
2013-02-24 16:05:00,32.4,25.4,29.96,West,270,13.6,15.4,75,0.00,,,5.18,WUHU216HW,2013-02-24 21:05:00,
2013-02-24 16:10:00,32.4,25.4,29.96,WNW,293,9.6,15.0,75,0.00,,,5.18,WUHU216HW,2013-02-24 21:10:00,
2013-02-24 16:15:00,32.2,25.2,29.97,WNW,293,13.4,18.6,75,0.00,,,5.18,WUHU216HW,2013-02-24 21:15:00,
2013-02-24 16:20:00,32.0,25.0,29.97,WNW,293,10.5,18.6,75,0.00,,,5.18,WUHU216HW,2013-02-24 21:20:00,
2013-02-24 16:25:00,32.0,25.4,29.97,West,270,15.9,17.9,76,0.00,,,5.18,WUHU216HW,2013-02-24 21:25:00,
2013-02-24 16:30:00,32.0,25.4,29.97,WNW,293,12.3,17.9,76,0.00,,,5.18,WUHU216HW,2013-02-24 21:30:00,
2013-02-24 16:35:00,32.0,25.4,29.97,SW,225,8.1,16.6,76,0.00,,,5.18,WUHU216HW,2013-02-24 21:35:00,
2013-02-24 16:40:00,32.0,25.4,29.97,WNW,293,13.6,16.6,76,0.00,,,5.18,WUHU216HW,2013-02-24 21:40:00,
2013-02-24 16:45:00,32.0,25.4,29.98,West,270,13.4,15.7,76,0.00,,,5.18,WUHU216HW,2013-02-24 21:45:00,
2013-02-24 16:50:00,32.0,25.4,29.98,WNW,293,9.8,15.7,76,0.00,,,5.18,WUHU216HW,2013-02-24 21:50:00,
2013-02-24 16:55:00,32.0,25.4,29.98,West,270,7.6,15.7,76,0.00,,,5.18,WUHU216HW,2013-02-24 21:55:00,
2013-02-24 17:00:00,32.0,25.4,29.98,West,270,12.1,14.5,76,0.00,,,5.48,WUHU216HW,2013-02-24 22:00:00,
2013-02-24 17:05:00,32.0,25.4,29.98,NW,315,9.8,18.3,76,0.00,,,5.48,WUHU216HW,2013-02-24 22:05:00,
2013-02-24 17:10:00,32.0,25.7,29.98,WNW,293,12.8,18.3,77,0.00,,,5.48,WUHU216HW,2013-02-24 22:10:00,
2013-02-24 17:15:00,31.9,25.8,29.99,NNW,338,9.8,13.6,78,0.00,,,5.48,WUHU216HW,2013-02-24 22:15:00,
2013-02-24 17:20:00,31.9,25.8,29.98,NW,315,11.0,17.2,78,0.00,,,5.48,WUHU216HW,2013-02-24 22:20:00,
2013-02-24 17:25:00,31.7,25.7,29.99,WNW,293,9.8,17.4,78,0.00,,,5.48,WUHU216HW,2013-02-24 22:25:00,
2013-02-24 17:30:00,31.7,25.7,29.99,WSW,248,9.4,17.4,78,0.00,,,5.48,WUHU216HW,2013-02-24 22:30:00,
2013-02-24 17:35:00,31.5,25.5,29.99,NW,315,7.6,13.4,78,0.00,,,5.48,WUHU216HW,2013-02-24 22:35:00,
2013-02-24 17:40:00,31.5,25.5,29.99,NW,315,9.8,15.7,78,0.00,,,5.48,WUHU216HW,2013-02-24 22:40:00,
2013-02-24 17:45:00,31.5,25.5,29.99,NW,315,5.8,15.7,78,0.00,,,5.48,WUHU216HW,2013-02-24 22:45:00,
2013-02-24 17:50:00,31.5,25.1,30.00,West,270,11.4,16.1,77,0.00,,,5.48,WUHU216HW,2013-02-24 22:50:00,
2013-02-24 17:55:00,31.7,25.3,30.00,NW,315,8.7,16.1,77,0.00,,,5.48,WUHU216HW,2013-02-24 22:55:00,
2013-02-24 18:00:00,31.7,25.3,30.00,West,270,11.4,12.1,77,0.00,,,5.79,WUHU216HW,2013-02-24 23:00:00,
2013-02-24 18:05:00,31.5,25.1,30.00,NW,315,7.6,13.9,77,0.00,,,5.79,WUHU216HW,2013-02-24 23:05:00,
2013-02-24 18:10:00,31.5,25.1,30.01,WNW,293,6.9,13.9,77,0.00,,,5.79,WUHU216HW,2013-02-24 23:10:00,
2013-02-24 18:15:00,31.5,25.1,30.01,NW,315,12.1,14.8,77,0.00,,,5.79,WUHU216HW,2013-02-24 23:15:00,
2013-02-24 18:20:00,31.5,25.1,30.02,WSW,248,9.6,14.8,77,0.00,,,5.79,WUHU216HW,2013-02-24 23:20:00,
2013-02-24 18:25:00,31.5,25.1,30.02,WSW,248,12.1,13.4,77,0.00,,,5.79,WUHU216HW,2013-02-24 23:25:00,
2013-02-24 18:30:00,31.5,25.1,30.02,WSW,248,4.0,13.6,77,0.00,,,5.79,WUHU216HW,2013-02-24 23:30:00,
2013-02-24 18:35:00,31.7,25.3,30.02,NW,315,8.1,13.6,77,0.00,,,5.79,WUHU216HW,2013-02-24 23:35:00,
2013-02-24 18:40:00,31.7,25.3,30.02,SW,225,9.2,13.4,77,0.00,,,5.79,WUHU216HW,2013-02-24 23:40:00,
2013-02-24 18:45:00,31.7,25.3,30.02,NNW,338,8.3,13.6,77,0.00,,,5.79,WUHU216HW,2013-02-24 23:45:00,
2013-02-24 18:50:00,31.7,25.3,30.02,NW,315,11.2,13.6,77,0.00,,,5.79,WUHU216HW,2013-02-24 23:50:00,
2013-02-24 18:55:00,31.7,25.3,30.03,WNW,293,14.3,14.3,77,0.00,,,5.79,WUHU216HW,2013-02-24 23:55:00,
2013-02-24 19:00:00,31.7,25.3,30.03,NNW,338,5.8,14.3,77,0.00,,,5.79,WUHU216HW,2013-02-25 00:00:00,
2013-02-24 19:05:00,31.7,25.3,30.03,WNW,293,3.8,10.5,77,0.00,,,6.09,WUHU216HW,2013-02-25 00:05:00,
2013-02-24 19:10:00,31.7,25.3,30.03,WNW,293,3.6,8.3,77,0.00,,,6.09,WUHU216HW,2013-02-25 00:10:00,
2013-02-24 19:15:00,31.7,25.3,30.03,NNW,338,6.9,11.0,77,0.00,,,6.09,WUHU216HW,2013-02-25 00:15:00,
2013-02-24 19:20:00,31.7,25.3,30.03,NW,315,11.2,11.2,77,0.00,,,6.09,WUHU216HW,2013-02-25 00:20:00,
2013-02-24 19:25:00,31.7,25.3,30.04,NW,315,6.9,12.8,77,0.00,,,6.09,WUHU216HW,2013-02-25 00:25:00,
2013-02-24 19:30:00,31.7,25.3,30.04,WNW,293,8.5,12.8,77,0.00,,,6.09,WUHU216HW,2013-02-25 00:30:00,
2013-02-24 19:35:00,31.7,25.3,30.04,NW,315,8.5,10.7,77,0.00,,,6.09,WUHU216HW,2013-02-25 00:35:00,
2013-02-24 19:40:00,31.7,25.3,30.04,WNW,293,3.4,10.7,77,0.00,,,6.09,WUHU216HW,2013-02-25 00:40:00,
2013-02-24 19:45:00,31.5,25.1,30.04,NW,315,10.3,10.7,77,0.00,,,6.09,WUHU216HW,2013-02-25 00:45:00,
2013-02-24 19:50:00,31.5,25.1,30.04,WNW,293,5.4,10.7,77,0.00,,,6.09,WUHU216HW,2013-02-25 00:50:00,
2013-02-24 19:55:00,31.5,25.1,30.05,NW,315,11.0,11.0,77,0.00,,,6.09,WUHU216HW,2013-02-25 00:55:00,
2013-02-24 20:00:00,31.5,25.1,30.05,NW,315,6.3,11.0,77,0.00,,,6.40,WUHU216HW,2013-02-25 01:00:00,
2013-02-24 20:05:00,31.5,25.1,30.05,WNW,293,4.9,11.0,77,0.00,,,6.40,WUHU216HW,2013-02-25 01:05:00,
2013-02-24 20:10:00,31.5,25.1,30.05,WNW,293,5.4,8.9,77,0.00,,,6.40,WUHU216HW,2013-02-25 01:10:00,
2013-02-24 20:15:00,31.5,25.1,30.06,West,270,9.4,10.1,77,0.00,,,6.40,WUHU216HW,2013-02-25 01:15:00,
2013-02-24 20:20:00,31.5,25.1,30.06,NNW,338,6.0,10.1,77,0.00,,,6.40,WUHU216HW,2013-02-25 01:20:00,
2013-02-24 20:25:00,31.5,25.1,30.06,WSW,248,3.6,8.5,77,0.00,,,6.40,WUHU216HW,2013-02-25 01:25:00,
2013-02-24 20:30:00,31.5,25.1,30.06,NW,315,4.7,8.5,77,0.00,,,6.40,WUHU216HW,2013-02-25 01:30:00,
2013-02-24 20:35:00,31.5,25.1,30.06,North,0,4.7,8.3,77,0.00,,,6.40,WUHU216HW,2013-02-25 01:35:00,
2013-02-24 20:40:00,31.5,25.1,30.06,WSW,248,4.7,8.5,77,0.00,,,6.40,WUHU216HW,2013-02-25 01:40:00,
2013-02-24 20:45:00,31.5,25.1,30.07,NNW,338,6.0,8.5,77,0.00,,,6.40,WUHU216HW,2013-02-25 01:45:00,
2013-02-24 20:50:00,31.5,25.1,30.07,WSW,248,5.8,10.3,77,0.00,,,6.40,WUHU216HW,2013-02-25 01:50:00,
2013-02-24 20:55:00,31.5,25.1,30.07,WNW,293,7.4,10.3,77,0.00,,,6.40,WUHU216HW,2013-02-25 01:55:00,
2013-02-24 21:00:00,31.5,25.1,30.07,WNW,293,9.2,9.2,77,0.00,,,6.70,WUHU216HW,2013-02-25 02:00:00,
2013-02-24 21:05:00,31.7,25.3,30.07,NW,315,6.7,9.2,77,0.00,,,6.70,WUHU216HW,2013-02-25 02:05:00,
2013-02-24 21:10:00,31.7,25.3,30.07,NNW,338,5.8,9.2,77,0.00,,,6.70,WUHU216HW,2013-02-25 02:10:00,
2013-02-24 21:15:00,31.7,25.3,30.07,NW,315,6.3,7.2,77,0.00,,,6.70,WUHU216HW,2013-02-25 02:15:00,
2013-02-24 21:20:00,31.7,25.3,30.07,WNW,293,6.7,6.7,77,0.00,,,6.70,WUHU216HW,2013-02-25 02:20:00,
2013-02-24 21:25:00,31.7,25.3,30.07,NNW,338,4.7,8.5,77,0.00,,,6.70,WUHU216HW,2013-02-25 02:25:00,
2013-02-24 21:30:00,31.7,25.3,30.07,NW,315,4.7,8.5,77,0.00,,,6.70,WUHU216HW,2013-02-25 02:30:00,
2013-02-24 21:35:00,31.7,25.3,30.07,NW,315,4.0,6.3,77,0.00,,,6.70,WUHU216HW,2013-02-25 02:35:00,
2013-02-24 21:40:00,31.5,25.1,30.07,NNW,338,4.3,6.9,77,0.00,,,6.70,WUHU216HW,2013-02-25 02:40:00,
2013-02-24 21:45:00,31.7,25.3,30.07,NW,315,4.3,8.1,77,0.00,,,6.70,WUHU216HW,2013-02-25 02:45:00,
2013-02-24 21:50:00,31.7,25.3,30.07,West,270,8.3,8.5,77,0.00,,,6.70,WUHU216HW,2013-02-25 02:50:00,
2013-02-24 21:55:00,31.5,25.1,30.07,NW,315,4.7,9.2,77,0.00,,,6.70,WUHU216HW,2013-02-25 02:55:00,
2013-02-24 22:00:00,31.5,25.1,30.07,NW,315,4.7,9.2,77,0.00,,,7.01,WUHU216HW,2013-02-25 03:00:00,
2013-02-24 22:05:00,31.3,24.9,30.07,NW,315,6.3,6.9,77,0.00,,,7.01,WUHU216HW,2013-02-25 03:05:00,
2013-02-24 22:10:00,31.3,24.9,30.07,NW,315,4.3,9.2,77,0.00,,,7.01,WUHU216HW,2013-02-25 03:10:00,
2013-02-24 22:15:00,31.3,24.9,30.07,West,270,3.6,9.2,77,0.00,,,7.01,WUHU216HW,2013-02-25 03:15:00,
2013-02-24 22:20:00,31.3,24.9,30.07,WNW,293,6.0,6.7,77,0.00,,,7.01,WUHU216HW,2013-02-25 03:20:00,
2013-02-24 22:25:00,31.3,24.9,30.07,NNW,338,5.4,6.7,77,0.00,,,7.01,WUHU216HW,2013-02-25 03:25:00,
2013-02-24 22:30:00,31.3,24.9,30.07,West,270,8.5,8.5,77,0.00,,,7.01,WUHU216HW,2013-02-25 03:30:00,
2013-02-24 22:35:00,31.3,24.9,30.07,NW,315,6.9,8.5,77,0.00,,,7.01,WUHU216HW,2013-02-25 03:35:00,
2013-02-24 22:40:00,31.3,24.9,30.07,NW,315,8.3,10.5,77,0.00,,,7.01,WUHU216HW,2013-02-25 03:40:00,
2013-02-24 22:45:00,31.3,24.9,30.07,WNW,293,10.3,10.5,77,0.00,,,7.01,WUHU216HW,2013-02-25 03:45:00,
2013-02-24 22:50:00,31.1,24.8,30.07,WNW,293,8.1,10.3,77,0.00,,,7.01,WUHU216HW,2013-02-25 03:50:00,
2013-02-24 22:55:00,31.1,24.8,30.07,WNW,293,6.5,10.3,77,0.00,,,7.01,WUHU216HW,2013-02-25 03:55:00,
2013-02-24 23:00:00,31.1,24.8,30.07,NW,315,5.6,9.8,77,0.00,,,7.31,WUHU216HW,2013-02-25 04:00:00,
2013-02-24 23:05:00,31.0,24.6,30.07,NW,315,9.2,12.1,77,0.00,,,7.31,WUHU216HW,2013-02-25 04:05:00,
2013-02-24 23:10:00,31.0,24.6,30.07,NW,315,6.9,12.1,77,0.00,,,7.31,WUHU216HW,2013-02-25 04:10:00,
2013-02-24 23:15:00,31.0,24.6,30.07,NW,315,5.4,11.4,77,0.00,,,7.31,WUHU216HW,2013-02-25 04:15:00,
2013-02-24 23:20:00,31.0,24.6,30.07,NW,315,6.0,11.4,77,0.00,,,7.31,WUHU216HW,2013-02-25 04:20:00,
2013-02-24 23:25:00,31.0,24.6,30.07,West,270,4.7,9.2,77,0.00,,,7.31,WUHU216HW,2013-02-25 04:25:00,
2013-02-24 23:30:00,31.0,24.6,30.07,NNW,338,5.4,8.7,77,0.00,,,7.31,WUHU216HW,2013-02-25 04:30:00,
2013-02-24 23:35:00,31.0,24.6,30.07,West,270,6.5,9.8,77,0.00,,,7.31,WUHU216HW,2013-02-25 04:35:00,
2013-02-24 23:40:00,30.8,24.4,30.07,NW,315,10.1,10.1,77,0.00,,,7.31,WUHU216HW,2013-02-25 04:40:00,
2013-02-24 23:45:00,30.8,24.4,30.08,WNW,293,7.2,10.1,77,0.00,,,7.31,WUHU216HW,2013-02-25 04:45:00,
2013-02-24 23:51:00,30.8,24.4,30.08,NW,315,7.4,10.1,77,0.00,,,7.31,WUHU216HW,2013-02-25 04:51:00,
2013-02-24 23:56:00,30.8,24.4,30.08,NNW,338,4.9,10.1,77,0.00,,,7.31,WUHU216HW,2013-02-25 04:56:00,